Location: Arcones
(41.1182°N, 3.7238°W)
Time: 21:29:17
(UTC+00:00)

Spot 4 Rocket - Pass Details

Date: 11 December 2025
Orbit: 769 x 773 km, 98.8° (Epoch: 12 January)

Event Time Altitude Azimuth Distance (km) Brightness Sun altitude
Rises 18:15:22 0° 150° (SSE) 3,229 7.1 -16.2°
Reaches altitude 10° 18:17:43 10° 145° (SE) 2,307 6.3 -16.6°
Maximum altitude 18:22:37 50° 71° (ENE) 975 4.1 -17.5°
Drops below altitude 10° 18:27:33 10° 357° (N) 2,325 6.4 -18.4°
Sets 18:29:55 0° 352° (N) 3,257 7.2 -18.8°
